Location: Bidwell Hollow
(37.7387°N, 90.1707°W)
Time: 07:19:05
(UTC+00:00)

Envisat - Visible Passes

Search period start: 05 October 2024 00:00
Search period end: 15 October 2024 00:00
Orbit: 762 x 764 km, 98.3° (Epoch: 04 October)

Date Brightness Start Highest point End Pass type
(mag) Time Alt. Az. Time Alt. Az. Time Alt. Az.
05 Oct 5.8 08:16:15 10° NE 08:16:53 13° NE 08:16:53 13° NE visible
05 Oct 4.5 09:54:53 10° N 09:57:02 22° NNW 09:57:02 22° NNW visible
06 Oct 4.7 09:17:00 10° N 09:18:59 24° N 09:18:59 24° N visible
07 Oct 5.4 08:39:44 10° NNE 08:40:56 17° NNE 08:40:56 17° NNE visible
07 Oct 4.8 10:19:34 10° NNW 10:21:04 16° NW 10:21:04 16° NW visible
08 Oct 4.7 09:41:12 10° N 09:43:02 21° N 09:43:02 21° N visible
09 Oct 5.1 09:03:32 10° NNE 09:04:58 19° NNE 09:04:58 19° NNE visible
09 Oct 5.1 10:45:05 10° NW 10:45:06 10° NW 10:45:06 10° NW visible
10 Oct 5.8 08:26:30 10° NNE 08:26:54 12° NE 08:26:54 12° NE visible
10 Oct 4.9 10:05:40 10° NNW 10:07:03 17° NNW 10:07:03 17° NNW visible
11 Oct 5.0 09:27:35 10° N 09:28:59 19° N 09:28:59 19° N visible
12 Oct 5.5 08:50:07 10° NNE 08:50:55 15° NNE 08:50:55 15° NNE visible
12 Oct 5.1 10:30:34 10° NNW 10:31:03 12° NNW 10:31:03 12° NNW visible
13 Oct 5.0 09:51:52 10° N 09:53:00 16° NNW 09:53:00 16° NNW visible
14 Oct 5.3 09:14:01 10° N 09:14:56 15° N 09:14:56 15° N visible
